Aeroporto :
LOGIN :

Iscrizione | Disclaimer

   EN    FR    IT 

 










Sommario :    VFR   VFR Marginale   IFR   IFR Intensivo   IFR Molto Intensivo
Visibilità : 
Base nubi : 
>= 8 km
>= 3000ft
5 / 8 km
1000 / 3000 ft
1500m / 5 km
500 / 1000 ft
800 / 1500m
200 / 500 ft
< 800m
< 200 ft
Simboli :   Temporali  Nebbia  Neve Forte  Precipitazioni Forti  Vento > 20 kt
SIGMETs :   Varie  Temporali  Ghiacco  Turbolenza  Onda orograficha  Ceneri Vulcaniche






- Altitudine del aeroporto : 1959 ft
- Codice IATA : HOQ


EDQM - Hof Plauen

ULTIMO METAR :
  • 110950Z 13008KT 080V160 CAVOK 25/15 Q1021

METARs OBSOLETI :
  • 110920Z 13008KT 070V160 CAVOK 24/15 Q1021
  • 110850Z 11008KT 060V150 CAVOK 25/16 Q1020
  • 110820Z 12007KT 070V150 CAVOK 23/16 Q1020
  • 110750Z 08005KT 050V140 CAVOK 23/16 Q1020
  • 110720Z 10004KT 040V140 CAVOK 22/15 Q1020

TAF TAF EDQM
Valido dal 11 a 09 ore il 11 a 18 ore UTC


110800Z 1109/1118 09006KT 9999 FEW040
PROB40
TEMPO 1111/1117 10015G30KT TSRA BKN040CB



MetMap, La meteo Aeronautica in un colpo d'occhio ! - Copyright ORBIFLY Dicembre 2007 - Disclaimer

ORBIFLY MET'MAP TEAM :

Programmazione e sviluppo : Alexandra Zaïnal
Concezione : Baudouin d'Aumeries
Aiuto per la programmazione : Marc-Olivier Méhu
Supporto tecnico e logistico : Manuel Goepfert
Aiuto per la traduzione : Arnaldo La Scala

Contatto : metmap@orbifly.com




FONTI E CREDITI :

   NOAA